Wind_Speed
20 20 20 19 19 19 19 18 19 18 17 17 18 18 18 18 18 19 20 20 21 21 22 22 21 22 22 21 21 22 23 23 24 24 24 24 25 25 25 24 24 24 25 25
21 21 21 20 20 20 20 20 20 20 19 18 19 20 20 20 20 21 21 22 22 22 22 22 23 23 24 23 24 24 24 24 25 25 25 25 25 25 25 25 24 25 25 25
21 22 22 21 21 21 21 21 21 21 20 20 20 21 21 22 22 22 22 23 23 23 24 25 25 26 26 26 26 26 26 26 26 26 26 26 25 26 26 26 25 25 26 26
22 22 23 21 21 20 21 21 22 21 21 22 22 22 23 24 24 25 24 25 25 25 25 26 27 27 27 27 27 27 27 27 26 26 26 27 27 26 26 27 27 26 26 25
23 23 22 21 21 21 21 21 21 22 22 23 23 23 23 25 25 26 26 25 25 26 27 27 27 27 28 27 27 27 27 27 26 26 26 26 26 25 26 27 27 27 26 26
23 23 22 22 22 22 22 22 22 23 23 24 24 24 23 24 25 26 27 27 27 26 27 27 27 27 28 28 28 28 27 27 27 26 26 26 26 26 27 27 28 27 26 25
22 22 22 22 22 22 22 22 23 23 23 24 24 24 24 25 26 26 27 27 27 27 27 27 27 27 27 28 28 28 27 27 27 26 26 26 26 26 26 27 27 26 25 25
23 23 21 21 21 22 22 22 23 23 23 23 24 24 23 24 25 26 26 26 26 27 26 26 26 26 26 26 27 27 26 27 26 26 26 26 27 26 26 26 26 25 25 25
23 22 21 22 22 22 23 23 23 24 23 23 24 24 23 22 23 24 25 25 25 25 25 25 25 25 24 25 25 26 26 26 26 26 26 27 27 26 26 27 27 26 26 26
23 22 22 22 22 23 23 24 24 24 24 24 24 24 24 24 24 25 25 25 25 25 25 24 25 24 25 25 25 25 25 26 26 27 27 27 27 26 26 27 27 27 27 27
23 23 23 23 23 23 23 24 24 25 25 24 24 25 25 25 25 25 24 25 25 25 25 24 23 23 24 24 24 24 25 25 26 26 26 26 27 27 27 27 27 27 27 26
23 23 24 24 23 23 24 25 25 25 24 24 24 24 25 25 25 25 25 25 24 24 24 23 23 23 23 23 23 24 24 25 25 26 26 26 26 26 26 27 27 26 26 26
24 24 24 24 24 24 24 25 26 25 24 24 24 24 24 24 25 26 26 25 24 23 23 22 22 22 23 24 23 23 24 25 25 26 26 26 26 27 27 26 26 26 27 27
24 25 25 25 25 25 24 25 25 24 24 24 24 24 24 24 25 25 25 25 23 22 22 22 22 22 23 24 24 24 25 25 25 25 25 26 26 27 27 27 27 26 26 26
24 25 25 25 26 25 25 24 24 24 24 24 24 24 24 24 24 25 24 24 24 23 23 23 23 23 23 24 24 25 25 25 26 25 26 26 26 26 26 26 26 26 26 26
25 25 26 26 26 25 24 24 24 24 24 23 23 23 24 24 24 24 24 23 23 22 22 23 24 24 24 25 25 26 26 26 26 26 26 26 26 26 26 25 25 26 26 26
25 25 25 25 25 25 24 24 24 23 23 23 24 24 24 24 24 24 24 24 23 23 23 23 24 25 25 26 26 26 26 26 26 26 26 26 26 26 26 26 26 26 26 26
24 24 25 25 25 24 25 25 24 24 24 24 23 24 24 24 24 24 24 24 24 24 25 25 26 26 26 26 26 26 26 26 26 27 27 27 27 27 27 27 27 27 27 27
24 24 24 25 25 24 24 24 24 24 24 24 25 25 25 25 25 24 24 24 24 24 25 26 26 27 27 27 27 27 27 27 28 28 28 28 28 28 28 28 28 28 28 28
23 24 24 24 25 25 24 24 24 24 24 24 25 25 25 25 25 25 25 25 25 26 26 26 27 27 27 27 27 28 28 28 28 28 29 29 29 29 29 29 29 29 28 28
22 23 23 23 24 24 24 24 24 24 24 25 25 25 25 25 25 25 25 25 26 26 27 27 28 27 27 27 28 28 29 29 29 29 29 29 30 30 30 30 30 29 29 29
22 22 23 23 23 23 24 24 24 24 25 25 25 25 26 26 25 26 26 26 26 26 27 28 28 28 28 28 28 29 29 29 29 29 29 30 30 30 30 30 30 30 30 30
22 22 22 22 22 22 23 23 24 24 24 24 25 26 26 26 27 27 27 27 27 28 28 29 29 29 30 30 30 29 29 29 29 29 29 29 30 30 30 30 30 30 30 30
23 22 21 21 21 22 22 22 23 23 23 23 24 25 26 26 27 27 28 28 28 28 28 29 29 30 30 30 29 29 29 29 29 29 29 29 30 30 30 31 31 30 30 30
23 23 22 21 21 22 22 22 23 23 24 24 25 25 26 26 27 27 27 28 28 28 28 28 28 29 29 29 29 29 29 29 29 29 29 30 30 30 30 29 29 29 29 29
23 23 23 23 23 23 23 23 23 24 25 25 26 26 26 27 27 27 27 27 27 27 27 27 28 28 29 29 29 29 28 28 28 28 29 29 30 29 29 28 28 28 28 28
23 23 23 24 24 24 24 24 24 25 25 25 26 27 27 27 27 27 27 27 27 27 27 27 27 28 28 28 28 28 28 28 28 28 29 29 29 29 29 29 28 28 28 28
Wind_Direction
271 269 266 265 265 264 266 266 267 268 268 267 268 269 273 275 276 276 277 278 280 279 279 278 280 283 284 284 285 287 289 291 291 290 291 291 291 288 289 290 289 285 282 279
270 269 266 265 266 267 265 265 267 269 270 270 269 271 274 276 277 276 275 276 277 277 276 278 281 283 284 285 286 287 288 290 291 292 291 291 290 288 289 289 289 287 284 281
272 269 267 267 268 268 267 265 266 268 269 268 269 271 273 274 274 274 275 275 276 277 278 280 281 283 284 284 284 285 287 289 289 291 292 291 288 288 289 289 289 288 284 282
273 271 270 272 270 270 268 268 267 267 268 269 270 271 273 274 274 274 275 276 277 278 279 281 281 281 281 283 284 285 287 288 288 289 291 291 289 288 289 290 291 289 284 281
272 273 273 273 273 271 270 269 269 269 270 271 272 272 274 275 277 277 277 277 278 279 279 281 281 280 280 282 284 285 286 287 286 287 289 291 290 289 290 291 291 290 284 281
272 274 273 274 274 272 272 271 270 270 271 272 274 275 275 275 277 278 278 279 280 279 280 281 281 281 280 281 283 284 285 286 286 287 288 289 289 290 290 290 291 289 285 282
272 273 272 273 274 273 273 272 271 272 273 275 276 278 276 276 277 278 279 280 279 279 280 280 281 280 280 281 283 284 284 285 286 286 288 288 289 291 291 292 292 290 288 285
273 273 274 273 272 272 273 272 272 274 275 275 277 278 279 280 281 280 281 280 279 280 279 279 280 280 280 282 283 283 283 285 287 287 288 289 290 291 292 292 292 291 289 287
271 273 273 271 272 272 272 274 274 274 274 275 276 276 277 279 280 280 282 283 282 282 281 281 282 282 282 282 283 284 284 286 288 290 291 291 291 291 292 293 292 291 289 288
269 271 272 271 271 272 273 274 275 275 275 275 275 274 275 279 282 282 283 283 283 282 282 283 283 283 284 284 284 285 285 286 289 291 292 293 293 292 292 293 293 292 291 289
268 270 270 270 272 272 272 274 275 275 275 275 275 275 276 279 281 283 283 283 283 283 281 281 283 285 286 285 285 286 287 288 289 291 292 292 293 294 294 293 293 293 292 291
269 269 269 270 272 273 274 275 275 273 274 275 274 275 277 278 280 281 282 282 282 282 282 282 283 285 286 288 288 288 289 289 290 291 292 292 293 295 296 295 294 293 292 292
269 269 268 269 273 275 275 275 274 273 273 274 275 275 275 278 280 281 280 281 281 282 283 282 282 284 285 287 289 290 291 291 291 291 291 292 293 294 295 295 295 294 293 293
268 269 270 271 273 275 274 273 272 272 273 275 276 277 278 279 280 280 280 280 280 280 282 283 283 285 287 288 289 292 292 292 292 291 292 293 294 296 296 296 295 295 295 295
269 270 270 272 275 274 273 273 271 271 273 275 276 276 279 279 279 279 279 278 279 280 280 282 282 285 287 288 289 292 293 293 292 292 293 293 295 297 297 297 296 296 296 295
270 270 271 274 275 274 273 273 273 272 272 273 274 275 277 278 278 278 277 277 278 279 279 280 282 283 285 287 289 291 292 292 292 292 293 292 293 295 295 296 296 297 297 296
272 270 272 274 273 273 275 274 273 273 273 274 276 276 276 277 278 278 277 277 277 277 278 279 281 284 285 286 287 288 289 290 291 292 294 293 293 294 295 296 297 297 297 297
275 273 273 274 272 273 275 274 273 274 274 275 277 278 278 278 278 278 278 276 276 278 279 280 282 283 284 286 286 287 288 289 290 291 292 292 292 293 294 295 296 296 297 297
275 275 276 275 273 273 274 273 274 276 276 276 277 278 279 279 278 278 277 277 278 279 281 282 283 284 285 285 286 287 288 290 291 291 292 291 291 291 292 293 294 295 295 295
276 275 275 274 272 272 272 273 274 276 275 276 278 279 280 280 279 278 277 278 279 280 280 282 283 284 285 285 286 287 288 290 290 292 292 292 292 291 291 292 294 294 295 295
278 276 274 274 272 271 272 273 275 276 276 277 279 280 280 280 279 279 278 278 279 280 281 282 284 285 285 286 287 287 288 289 290 291 292 292 292 292 291 292 293 294 294 295
277 275 274 273 272 272 272 274 275 276 278 279 281 281 281 280 279 279 278 278 280 281 281 282 283 285 286 287 288 289 290 291 292 292 293 293 293 293 292 292 293 293 293 294
277 277 276 275 273 273 274 275 276 278 279 280 281 282 281 280 279 279 278 279 280 281 282 283 284 285 286 287 288 290 291 292 292 293 294 295 295 294 293 293 293 293 293 293
277 277 277 276 275 275 276 277 278 279 281 283 284 285 284 282 281 280 280 279 280 281 282 283 285 286 287 288 289 290 292 292 292 292 294 296 296 295 294 293 293 293 293 293
277 276 277 278 276 275 276 278 279 280 282 285 287 288 286 284 283 283 282 282 282 282 284 285 286 288 288 288 289 290 291 291 291 292 293 295 296 296 296 295 294 294 294 294
277 277 278 278 278 277 276 277 280 282 284 286 287 288 287 285 284 284 285 284 284 284 285 286 287 288 289 289 289 289 290 291 291 291 293 295 296 296 295 294 294 295 295 296
277 276 277 278 279 279 279 279 280 283 285 287 288 288 286 285 284 285 285 286 286 286 288 289 289 289 289 290 290 290 290 291 292 293 293 294 295 295 295 294 295 296 297 296
Height
5774 5774 5774 5774 5774 5775 5775 5775 5776 5777 5777 5777 5777 5777 5777 5777 5776 5776 5775 5774 5773 5772 5771 5769 5768 5767 5766 5765 5763 5762 5760 5758 5757 5755 5753 5751 5749 5747 5745 5744 5742 5740 5739 5738
5769 5768 5768 5769 5769 5769 5770 5770 5771 5771 5772 5772 5771 5771 5772 5771 5771 5770 5769 5768 5767 5765 5764 5763 5762 5761 5760 5758 5757 5755 5753 5751 5749 5747 5746 5744 5742 5740 5738 5736 5734 5733 5731 5730
5763 5763 5763 5764 5765 5764 5764 5764 5765 5765 5767 5766 5766 5766 5766 5765 5765 5763 5762 5761 5760 5759 5757 5756 5755 5753 5752 5751 5749 5747 5746 5744 5742 5740 5738 5736 5734 5732 5730 5728 5726 5725 5723 5722
5757 5758 5758 5761 5759 5758 5758 5758 5759 5759 5759 5759 5759 5759 5759 5758 5757 5756 5755 5753 5752 5751 5750 5748 5747 5745 5744 5742 5741 5740 5738 5736 5734 5733 5731 5729 5727 5725 5723 5721 5718 5717 5715 5714
5751 5751 5752 5753 5753 5752 5752 5752 5752 5752 5753 5752 5752 5752 5752 5751 5749 5748 5747 5745 5744 5743 5741 5740 5738 5737 5735 5734 5733 5732 5730 5728 5727 5725 5723 5722 5720 5718 5716 5713 5711 5709 5707 5706
5745 5745 5746 5748 5747 5746 5747 5746 5746 5745 5745 5745 5745 5745 5745 5743 5741 5740 5739 5737 5736 5734 5733 5732 5730 5728 5727 5726 5725 5723 5722 5720 5719 5717 5716 5714 5712 5710 5708 5706 5703 5701 5699 5698
5739 5738 5739 5740 5740 5740 5741 5741 5739 5738 5738 5738 5737 5737 5737 5735 5733 5732 5730 5729 5728 5726 5725 5723 5722 5720 5719 5718 5716 5715 5714 5713 5711 5710 5708 5706 5705 5703 5701 5698 5696 5694 5692 5690
5733 5733 5735 5733 5733 5733 5733 5732 5732 5731 5731 5731 5730 5729 5728 5727 5725 5724 5722 5721 5719 5718 5716 5715 5713 5712 5711 5710 5708 5707 5706 5705 5703 5702 5701 5699 5697 5695 5693 5691 5689 5686 5685 5683
5727 5729 5727 5726 5726 5726 5725 5725 5725 5724 5724 5723 5723 5722 5721 5720 5718 5717 5715 5713 5712 5710 5708 5707 5706 5704 5703 5702 5701 5700 5698 5697 5696 5695 5693 5691 5689 5687 5685 5683 5681 5679 5677 5675
5720 5721 5720 5720 5719 5719 5718 5718 5718 5717 5717 5716 5715 5714 5714 5712 5711 5709 5708 5706 5704 5703 5701 5700 5699 5697 5696 5695 5694 5692 5691 5690 5689 5687 5686 5684 5682 5680 5677 5675 5673 5671 5669 5667
5713 5714 5714 5713 5713 5712 5712 5711 5710 5710 5709 5708 5708 5707 5706 5705 5704 5702 5701 5699 5697 5696 5694 5693 5692 5690 5689 5688 5687 5686 5684 5683 5682 5680 5678 5676 5674 5672 5670 5668 5665 5663 5661 5659
5707 5707 5706 5707 5706 5705 5705 5704 5703 5703 5702 5701 5700 5699 5698 5697 5697 5695 5693 5692 5690 5689 5687 5686 5685 5684 5683 5681 5680 5679 5677 5676 5675 5673 5671 5669 5667 5665 5662 5660 5657 5655 5653 5651
5699 5699 5699 5699 5699 5698 5697 5697 5696 5695 5695 5694 5693 5692 5691 5690 5689 5688 5686 5685 5683 5682 5681 5680 5678 5677 5676 5674 5673 5672 5671 5669 5667 5666 5664 5662 5660 5658 5655 5653 5650 5647 5645 5643
5691 5691 5691 5691 5691 5691 5690 5689 5689 5688 5687 5687 5686 5685 5684 5682 5681 5680 5679 5678 5676 5675 5674 5673 5672 5671 5669 5668 5667 5665 5664 5662 5660 5658 5657 5655 5652 5650 5648 5645 5643 5640 5637 5635
5685 5684 5684 5683 5683 5683 5682 5681 5681 5681 5680 5679 5679 5678 5676 5675 5674 5673 5672 5671 5670 5669 5667 5666 5665 5664 5663 5662 5660 5658 5657 5655 5653 5651 5649 5647 5645 5642 5640 5637 5635 5632 5630 5627
5677 5676 5676 5676 5675 5675 5675 5674 5674 5674 5673 5672 5671 5670 5669 5668 5667 5666 5665 5664 5663 5662 5661 5660 5658 5657 5656 5655 5653 5651 5649 5647 5645 5644 5642 5639 5637 5635 5632 5630 5627 5624 5622 5620
5669 5669 5669 5668 5668 5667 5667 5667 5667 5666 5665 5665 5664 5663 5662 5661 5659 5658 5657 5657 5656 5655 5654 5653 5652 5650 5649 5647 5645 5644 5642 5640 5638 5636 5634 5632 5630 5627 5625 5622 5620 5617 5614 5612
5662 5661 5661 5661 5660 5660 5660 5659 5659 5658 5658 5657 5656 5655 5654 5653 5652 5651 5650 5649 5648 5648 5647 5646 5644 5643 5641 5639 5638 5636 5634 5632 5630 5628 5626 5624 5622 5619 5617 5614 5612 5609 5607 5604
5654 5654 5653 5653 5652 5652 5652 5652 5651 5651 5650 5650 5649 5648 5647 5646 5645 5644 5643 5642 5641 5640 5639 5638 5636 5635 5633 5632 5630 5628 5626 5624 5622 5620 5618 5615 5613 5611 5609 5606 5604 5601 5598 5596
5646 5645 5645 5645 5644 5644 5644 5644 5644 5643 5643 5642 5641 5640 5639 5638 5637 5636 5635 5634 5634 5632 5631 5630 5628 5627 5625 5623 5622 5620 5618 5616 5614 5611 5609 5607 5604 5602 5600 5597 5595 5592 5590 5587
5638 5638 5637 5637 5637 5637 5636 5636 5636 5635 5635 5634 5633 5632 5631 5630 5629 5628 5627 5627 5626 5624 5623 5622 5620 5619 5617 5615 5613 5611 5609 5607 5605 5603 5600 5598 5596 5593 5591 5589 5586 5584 5581 5579
5631 5630 5630 5629 5629 5629 5629 5628 5628 5627 5627 5626 5625 5624 5623 5622 5621 5620 5619 5618 5617 5616 5614 5613 5611 5610 5608 5606 5605 5603 5600 5598 5596 5594 5592 5589 5587 5584 5582 5579 5577 5574 5572 5570
5624 5623 5623 5622 5622 5621 5621 5620 5620 5619 5619 5618 5617 5616 5615 5614 5613 5612 5611 5610 5608 5607 5606 5604 5603 5601 5599 5597 5595 5594 5592 5590 5587 5585 5583 5580 5578 5575 5573 5570 5568 5565 5563 5560
5618 5617 5616 5615 5615 5614 5614 5613 5612 5612 5611 5610 5609 5607 5606 5605 5604 5602 5601 5600 5599 5598 5597 5595 5593 5592 5590 5588 5586 5584 5582 5580 5578 5576 5574 5571 5569 5566 5563 5561 5558 5556 5554 5551
5610 5610 5609 5609 5608 5607 5607 5606 5605 5604 5604 5603 5601 5599 5598 5596 5595 5594 5592 5591 5590 5589 5587 5586 5584 5583 5581 5579 5577 5575 5573 5571 5569 5567 5565 5562 5560 5557 5554 5551 5549 5547 5545 5542
5604 5603 5602 5602 5601 5600 5599 5599 5598 5597 5596 5595 5593 5592 5590 5588 5586 5585 5584 5583 5581 5580 5578 5577 5575 5573 5572 5570 5568 5566 5564 5562 5560 5558 5556 5553 5551 5548 5545 5543 5540 5538 5536 5534
5596 5596 5595 5594 5593 5593 5592 5591 5590 5589 5588 5586 5585 5583 5581 5580 5578 5577 5575 5574 5573 5571 5570 5568 5566 5565 5563 5561 5559 5557 5555 5553 5551 5549 5546 5544 5542 5539 5537 5535 5532 5530 5527 5525